Powrót do katalogu

COSMOS 1432

AktywnyMilitariaLEO
NORAD 13764·PAYLOAD·🇷🇺 Russia

Wystrzelony Jan 19, 1983 z Plesetsk Cosmodrome

Loading…

Następne Przeloty (najbliższe 24 godziny)

TLE

ŚwieżeSource: Space-Track

Epoka: Sep 14, 2026, 08:54 UTC

1 13764U 83002D   26257.37122900 -.00000020  00000-0 -23936-4 0  9991
2 13764  74.0229 216.3099 0003555 302.4084 132.3381 12.49889629991992

Śledź COSMOS 1432 w czasie rzeczywistym z AllMySat

Download on the App Store